| time (UTC) | temp F | wind direction | speed MPH | gust MPH | rain 1hr in | rain 24hr in | rain mn in | humidity % | barometer mb |
| 20260504025037 | 58 | 0.0 | 0.0 | 0.00 | 0.00 | 0.00 | 88 | 1008.8 | |
| 20260504024034 | 58 | 0.0 | 2.0 | 0.00 | 0.00 | 0.00 | 88 | 1008.8 | |
| 20260504023032 | 58 | 0.0 | 0.0 | 0.00 | 0.00 | 0.00 | 88 | 1008.7 | |
| 20260504022029 | 58 | 171 | 1.0 | 2.0 | 0.00 | 0.00 | 0.00 | 88 | 1008.7 |
| 20260504021027 | 58 | 155 | 2.0 | 4.0 | 0.00 | 0.00 | 0.00 | 88 | 1008.9 |
| 20260504020024 | 58 | 132 | 1.0 | 2.0 | 0.00 | 0.00 | 0.00 | 89 | 1009.1 |
| 20260504015021 | 58 | 0 | 0.0 | 2.0 | 0.00 | 0.00 | 0.00 | 89 | 1009.0 |
| 20260504014019 | 58 | 0.0 | 0.0 | 0.00 | 0.00 | 0.00 | 89 | 1009.0 | |
| 20260504013016 | 57 | 0.0 | 0.0 | 0.00 | 0.00 | 0.00 | 90 | 1009.0 | |
| 20260504012114 | 58 | 210 | 1.0 | 2.0 | 0.00 | 0.00 | 0.00 | 90 | 1009.2 |
| 20260504011111 | 57 | 270 | 0.0 | 2.0 | 0.00 | 0.00 | 0.00 | 90 | 1009.2 |
| 20260504010109 | 57 | 0.0 | 2.0 | 0.00 | 0.00 | 0.00 | 91 | 1009.5 | |
| 20260504005107 | 57 | 303 | 0.0 | 2.0 | 0.00 | 0.00 | 0.00 | 91 | 1009.4 |
| 20260504004104 | 57 | 293 | 0.0 | 2.0 | 0.00 | 0.00 | 0.00 | 91 | 1009.6 |
| 20260504003101 | 57 | 281 | 1.0 | 4.0 | 0.00 | 0.00 | 0.00 | 92 | 1009.6 |
| 20260504002058 | 57 | 300 | 2.0 | 4.0 | 0.00 | 0.00 | 0.00 | 92 | 1009.8 |
| 20260504001056 | 57 | 280 | 3.0 | 4.0 | 0.00 | 0.00 | 0.00 | 92 | 1009.8 |
| 20260504000053 | 57 | 299 | 2.0 | 4.0 | 0.00 | 0.00 | 0.00 | 91 | 1009.8 |
| 20260503235050 | 57 | 309 | 3.0 | 6.0 | 0.00 | 0.00 | 0.00 | 91 | 1009.8 |
| 20260503234048 | 57 | 312 | 2.0 | 4.0 | 0.00 | 0.00 | 0.00 | 92 | 1010.0 |
| 20260503233045 | 57 | 312 | 1.0 | 4.0 | 0.00 | 0.00 | 0.00 | 92 | 1009.9 |
| 20260503232043 | 56 | 12 | 2.0 | 4.0 | 0.00 | 0.00 | 0.00 | 92 | 1010.3 |
| 20260503231040 | 56 | 11 | 2.0 | 4.0 | 0.00 | 0.00 | 0.00 | 92 | 1010.1 |
| 20260503230038 | 56 | 323 | 1.0 | 2.0 | 0.00 | 0.00 | 0.00 | 92 | 1010.2 |
| 20260503225036 | 56 | 351 | 2.0 | 4.0 | 0.00 | 0.00 | 0.00 | 92 | 1010.0 |
| 20260503224033 | 56 | 339 | 2.0 | 4.0 | 0.00 | 0.00 | 0.00 | 93 | 1010.1 |
| 20260503223031 | 56 | 11 | 2.0 | 4.0 | 0.00 | 0.00 | 0.00 | 93 | 1010.1 |
| 20260503222028 | 56 | 342 | 2.0 | 4.0 | 0.00 | 0.00 | 0.00 | 94 | 1010.1 |
| 20260503221026 | 56 | 307 | 4.0 | 7.0 | 0.00 | 0.00 | 0.00 | 94 | 1010.1 |
| 20260503220023 | 56 | 305 | 5.0 | 8.0 | 0.00 | 0.00 | 0.00 | 94 | 1010.1 |
| 20260503215020 | 56 | 320 | 4.0 | 8.0 | 0.00 | 0.00 | 0.00 | 93 | 1010.3 |
| 20260503214018 | 56 | 352 | 4.0 | 9.0 | 0.00 | 0.00 | 0.00 | 92 | 1010.2 |
| 20260503213015 | 57 | 329 | 3.0 | 7.0 | 0.00 | 0.00 | 0.00 | 91 | 1010.4 |
| 20260503212113 | 57 | 331 | 5.0 | 11.0 | 0.00 | 0.00 | 0.00 | 90 | 1010.3 |
| 20260503211110 | 58 | 26 | 3.0 | 8.0 | 0.00 | 0.00 | 0.00 | 89 | 1010.6 |
| 20260503210108 | 58 | 324 | 2.0 | 4.0 | 0.00 | 0.00 | 0.00 | 88 | 1010.5 |
| 20260503205104 | 58 | 2 | 3.0 | 6.0 | 0.00 | 0.00 | 0.00 | 87 | 1010.4 |
| 20260503204102 | 58 | 330 | 3.0 | 4.0 | 0.00 | 0.00 | 0.00 | 87 | 1010.5 |
| 20260503203059 | 58 | 328 | 3.0 | 8.0 | 0.00 | 0.00 | 0.00 | 88 | 1010.6 |
| 20260503202057 | 58 | 313 | 3.0 | 6.0 | 0.00 | 0.00 | 0.00 | 89 | 1010.6 |
| 20260503201054 | 58 | 351 | 1.0 | 4.0 | 0.00 | 0.00 | 0.00 | 89 | 1010.6 |
| 20260503200052 | 58 | 335 | 1.0 | 4.0 | 0.00 | 0.00 | 0.00 | 89 | 1010.4 |
| 20260503195049 | 58 | 300 | 3.0 | 4.0 | 0.00 | 0.00 | 0.00 | 89 | 1010.4 |
| 20260503194047 | 58 | 346 | 3.0 | 4.0 | 0.00 | 0.00 | 0.00 | 89 | 1010.3 |
| 20260503193044 | 58 | 345 | 3.0 | 6.0 | 0.00 | 0.00 | 0.00 | 89 | 1010.3 |
| 20260503192041 | 58 | 14 | 4.0 | 9.0 | 0.00 | 0.00 | 0.00 | 88 | 1010.2 |
| 20260503191041 | 58 | 332 | 4.0 | 7.0 | 0.00 | 0.00 | 0.00 | 88 | 1010.1 |
| 20260503190036 | 58 | 0 | 5.0 | 9.0 | 0.00 | 0.00 | 0.00 | 87 | 1010.0 |
| 20260503185034 | 58 | 18 | 5.0 | 9.0 | 0.00 | 0.00 | 0.00 | 86 | 1010.1 |
| 20260503184031 | 58 | 23 | 3.0 | 6.0 | 0.00 | 0.00 | 0.00 | 85 | 1010.2 |
| 20260503183028 | 58 | 338 | 4.0 | 7.0 | 0.00 | 0.00 | 0.00 | 83 | 1010.1 |
| 20260503182026 | 58 | 333 | 4.0 | 8.0 | 0.00 | 0.00 | 0.00 | 81 | 1010.1 |
| 20260503181023 | 59 | 338 | 2.0 | 7.0 | 0.00 | 0.00 | 0.00 | 80 | 1010.1 |
| 20260503180021 | 59 | 341 | 3.0 | 6.0 | 0.00 | 0.00 | 0.00 | 80 | 1010.0 |
| 20260503175018 | 59 | 25 | 3.0 | 6.0 | 0.00 | 0.00 | 0.00 | 80 | 1010.1 |
| 20260503174015 | 59 | 351 | 4.0 | 8.0 | 0.00 | 0.00 | 0.00 | 78 | 1009.8 |
| 20260503173112 | 59 | 359 | 6.0 | 11.0 | 0.00 | 0.00 | 0.00 | 75 | 1009.8 |
| 20260503172110 | 59 | 355 | 4.0 | 9.0 | 0.00 | 0.00 | 0.00 | 74 | 1009.8 |
| 20260503171107 | 59 | 15 | 5.0 | 11.0 | 0.00 | 0.00 | 0.00 | 74 | 1009.8 |
| 20260503170105 | 59 | 23 | 7.0 | 13.0 | 0.00 | 0.00 | 0.00 | 76 | 1009.8 |
| 20260503131105 | 63 | 278 | 2.0 | 7.0 | 0.00 | 0.00 | 0.00 | 72 | 1011.5 |
| 20260503081046 | 60 | 3 | 4.0 | 8.0 | 0.00 | 0.00 | 0.00 | 81 | 1012.2 |
| 20260503072033 | 59 | 350 | 4.0 | 8.0 | 0.00 | 0.00 | 0.00 | 87 | 1012.3 |
| 20260503071030 | 58 | 23 | 4.0 | 7.0 | 0.00 | 0.00 | 0.00 | 89 | 1012.1 |
| 20260503055110 | 58 | 2 | 4.0 | 7.0 | 0.00 | 0.00 | 0.00 | 88 | 1012.3 |
| 20260503054107 | 58 | 2 | 2.0 | 6.0 | 0.00 | 0.00 | 0.00 | 87 | 1012.3 |
| 20260503053104 | 58 | 9 | 2.0 | 4.0 | 0.00 | 0.00 | 0.00 | 87 | 1012.2 |
| 20260503052102 | 58 | 322 | 2.0 | 4.0 | 0.00 | 0.00 | 0.00 | 86 | 1012.1 |
| 20260503051059 | 58 | 11 | 2.0 | 4.0 | 0.00 | 0.00 | 0.00 | 87 | 1012.1 |
| 20260503050056 | 58 | 340 | 2.0 | 6.0 | 0.00 | 0.00 | 0.00 | 87 | 1012.1 |
| 20260503045054 | 58 | 326 | 3.0 | 4.0 | 0.00 | 0.00 | 0.00 | 87 | 1012.1 |
| 20260503044051 | 58 | 16 | 1.0 | 4.0 | 0.00 | 0.00 | 0.00 | 87 | 1012.1 |
| 20260503043049 | 58 | 21 | 3.0 | 6.0 | 0.00 | 0.00 | 0.00 | 87 | 1012.0 |
| 20260503042046 | 58 | 6 | 3.0 | 6.0 | 0.00 | 0.00 | 0.00 | 87 | 1012.2 |
| 20260503041044 | 58 | 314 | 3.0 | 4.0 | 0.00 | 0.00 | 0.00 | 89 | 1012.2 |
| 20260503040041 | 58 | 307 | 3.0 | 4.0 | 0.00 | 0.00 | 0.00 | 90 | 1012.5 |
| 20260503035038 | 58 | 279 | 2.0 | 4.0 | 0.00 | 0.00 | 0.00 | 91 | 1012.5 |
| 20260503034036 | 58 | 308 | 2.0 | 4.0 | 0.00 | 0.00 | 0.00 | 91 | 1012.5 |
| 20260503033033 | 58 | 315 | 3.0 | 4.0 | 0.00 | 0.00 | 0.00 | 91 | 1012.6 |
| 20260503032031 | 58 | 343 | 1.0 | 4.0 | 0.00 | 0.00 | 0.00 | 90 | 1012.6 |
| 20260503031028 | 58 | 320 | 3.0 | 6.0 | 0.00 | 0.00 | 0.00 | 90 | 1012.8 |
| 20260503030025 | 58 | 316 | 2.0 | 4.0 | 0.00 | 0.00 | 0.00 | 89 | 1012.9 |